Weather History for KD95 - December, 2012

Change the Weather History Date:

Thursday, December 20, 2012

  Actual Average (KFNT) Record (KFNT)
Temperature  
Mean Temperature 37 °F 26 °F  
Max Temperature 44 °F 33 °F 59 °F (1957)
Min Temperature 30 °F 19 °F -8 °F (1954)
Degree Days  
Heating Degree Days 28 39  
Month to date heating degree days 719  
Since 1 July heating degree days 2200  
Cooling Degree Days 0 0  
Month to date cooling degree days 0  
Year to date cooling degree days 531  
Moisture  
Dew Point 35 °F    
Average Humidity 91    
Maximum Humidity 96    
Minimum Humidity 80    
Precipitation  
Precipitation 0.37 in 0.06 in 0.71 in (2012)
Month to date precipitation 1.28  
Year to date precipitation 30.73  
Snow  
Snow 0.00 in 0.40 in 5.60 in (1975)
Month to date snowfall 7.2  
Since 1 July snowfall 10.1  
Snow Depth -    
Sea Level Pressure  
Sea Level Pressure 29.56 in    
Wind  
Wind Speed 8 mph (ESE)    
Max Wind Speed 22 mph    
Max Gust Speed 44 mph    
Visibility 7 miles    
Events Rain , Snow    
T = Trace of Precipitation, MM = Missing Value Source: NWS Daily Summary

Daily Weather History Graph

Daily Weather History Graph

Search for Another Location

Airport or City:

Trip Planner

Search our weather history database for the weather conditions in past years. The results will help you decide how hot, cold, wet, or windy it might be!

Date:

Astronomy

Dec. 20, 2012 Rise Set
Actual Time 8:01 AM EST 5:00 PM EST
Civil Twilight 7:28 AM EST 5:33 PM EST
Nautical Twilight 6:52 AM EST 6:09 PM EST
Astronomical Twilight 6:18 AM EST 6:43 PM EST
Moon 12:26 PM EST (12/20) 12:38 AM EST (12/20)
Length of Visible Light 10h 04m
Length of Day
8h 59m
First Quarter, 55% of the Moon is Illuminated
Dec 20
First Quarter
Dec 28
Full
Jan 4
Last Quarter
Jan 11
New
Jan 18
First Quarter

Hourly Weather History & Observations

Time (EST) Temp. Windchill Dew Point Humidity Pressure Visibility Wind Dir Wind Speed Gust Speed Precip Events Conditions
12:13 AM 30.7 °F - 29.3 °F 94% 30.10 in 4.0 mi Calm Calm - N/A   Scattered Clouds
12:32 AM 30.4 °F 25.6 °F 29.3 °F 96% 30.08 in 4.0 mi SE 4.6 mph - N/A   Scattered Clouds
12:53 AM 31.1 °F 27.7 °F 29.8 °F 95% 30.06 in 4.0 mi SE 3.5 mph - N/A   Clear
1:13 AM 31.8 °F 28.5 °F 30.2 °F 94% 30.05 in 4.0 mi SE 3.5 mph - N/A   Mostly Cloudy
1:53 AM 32.0 °F 27.5 °F 30.9 °F 96% 30.03 in 4.0 mi East 4.6 mph - N/A   Overcast
2:13 AM 32.9 °F 27.5 °F 31.1 °F 93% 30.02 in 5.0 mi ESE 5.8 mph - N/A   Overcast
2:33 AM 32.9 °F 28.5 °F 31.3 °F 94% 30.01 in 5.0 mi ESE 4.6 mph - N/A   Overcast
2:53 AM 32.9 °F 27.5 °F 31.5 °F 94% 30.00 in 5.0 mi East 5.8 mph - N/A   Overcast
3:13 AM 32.9 °F 29.8 °F 31.6 °F 95% 30.00 in 4.0 mi ESE 3.5 mph - N/A   Overcast
3:33 AM 33.3 °F 27.9 °F 31.6 °F 94% 30.00 in 5.0 mi SE 5.8 mph - N/A   Overcast
3:53 AM 33.3 °F 28.9 °F 31.6 °F 94% 30.00 in 4.0 mi SE 4.6 mph - N/A Snow Light Snow
4:13 AM 33.1 °F 26.9 °F 31.8 °F 95% 29.98 in 4.0 mi ESE 6.9 mph - N/A Snow Light Snow
4:33 AM 32.9 °F 25.9 °F 32.0 °F 96% 29.94 in 2.5 mi East 8.1 mph - 0.01 in Snow Light Snow
4:53 AM 33.6 °F 26.8 °F 32.0 °F 94% 29.92 in 3.0 mi ESE 8.1 mph - 0.01 in Snow Light Snow
5:13 AM 33.8 °F 26.4 °F 32.2 °F 94% 29.90 in 4.0 mi East 9.2 mph - N/A   Overcast
5:33 AM 34.2 °F 26.8 °F 32.4 °F 93% 29.87 in 4.0 mi East 9.2 mph - N/A   Overcast
5:53 AM 34.9 °F 29.9 °F 32.7 °F 92% 29.90 in 5.0 mi East 5.8 mph - N/A   Overcast
6:13 AM 35.1 °F 29.3 °F 32.9 °F 92% 29.90 in 5.0 mi East 6.9 mph - N/A   Overcast
6:33 AM 35.2 °F 31.2 °F 33.1 °F 92% 29.89 in 5.0 mi East 4.6 mph - N/A   Overcast
6:53 AM 35.6 °F 29.9 °F 33.3 °F 91% 29.89 in 5.0 mi ESE 6.9 mph - N/A   Overcast
7:13 AM 35.6 °F 29.9 °F 33.4 °F 92% 29.88 in 5.0 mi East 6.9 mph - N/A   Overcast
7:33 AM 35.6 °F 29.2 °F 33.4 °F 92% 29.84 in 5.0 mi East 8.1 mph - N/A   Overcast
7:53 AM 36.0 °F 28.5 °F 33.8 °F 92% 29.82 in 5.0 mi East 10.4 mph 16.1 mph N/A   Overcast
8:12 AM 36.0 °F 27.5 °F 33.6 °F 91% 29.78 in 5.0 mi East 12.7 mph 20.7 mph N/A   Overcast
8:33 AM 35.8 °F 28.8 °F 33.4 °F 91% 29.74 in 5.0 mi East 9.2 mph 19.6 mph N/A Rain Light Rain
8:53 AM 35.8 °F 27.3 °F 33.4 °F 91% 29.75 in 5.0 mi East 12.7 mph 17.3 mph N/A   Overcast
9:12 AM 36.0 °F 28.5 °F 33.1 °F 89% 29.73 in 7.0 mi East 10.4 mph 20.7 mph N/A   Overcast
9:33 AM 36.0 °F 29.0 °F 33.1 °F 89% 29.71 in 7.0 mi East 9.2 mph 23.0 mph N/A   Overcast
9:53 AM 36.1 °F 27.7 °F 33.1 °F 89% 29.67 in 7.0 mi East 12.7 mph 21.9 mph N/A   Overcast
10:12 AM 36.9 °F 28.7 °F 32.9 °F 86% 29.66 in 7.0 mi East 12.7 mph 23.0 mph N/A   Mostly Cloudy
10:33 AM 37.4 °F 29.3 °F 33.1 °F 84% 29.64 in 10.0 mi East 12.7 mph 23.0 mph N/A   Mostly Cloudy
10:53 AM 37.9 °F 28.2 °F 33.3 °F 83% 29.63 in 10.0 mi East 18.4 mph 26.5 mph N/A   Mostly Cloudy
11:12 AM 38.1 °F 29.5 °F 32.9 °F 81% 29.61 in 10.0 mi ESE 15.0 mph 25.3 mph N/A   Overcast
11:33 AM 37.9 °F 28.9 °F 33.4 °F 84% 29.60 in 10.0 mi ESE 16.1 mph 25.3 mph N/A   Light Drizzle
11:53 AM 38.3 °F 30.5 °F 33.6 °F 83% 29.59 in 10.0 mi ESE 12.7 mph 20.7 mph N/A   Light Drizzle
12:12 PM 38.8 °F 30.8 °F 33.3 °F 80% 29.57 in 10.0 mi ESE 13.8 mph 20.7 mph N/A Rain Light Rain
12:33 PM 38.3 °F 30.9 °F 34.0 °F 84% 29.55 in 4.0 mi ESE 11.5 mph 18.4 mph 0.03 in Rain Rain
12:53 PM 37.8 °F 31.3 °F 35.1 °F 90% 29.52 in 5.0 mi ESE 9.2 mph - 0.05 in Rain Light Rain
1:12 PM 37.9 °F 30.0 °F 35.6 °F 91% 29.50 in 4.0 mi ESE 12.7 mph 19.6 mph 0.02 in Rain Rain
1:33 PM 38.1 °F 29.8 °F 35.8 °F 91% 29.47 in 4.0 mi ESE 13.8 mph 24.2 mph 0.06 in Rain Rain
1:53 PM 37.9 °F 29.2 °F 36.0 °F 93% 29.43 in 4.0 mi ESE 15.0 mph 25.3 mph 0.09 in Rain Light Rain
2:12 PM 38.3 °F 27.8 °F 36.0 °F 91% 29.41 in 5.0 mi ESE 21.9 mph 31.1 mph 0.01 in Rain Light Rain
2:33 PM 38.3 °F 28.1 °F 36.5 °F 93% 29.37 in 5.0 mi ESE 20.7 mph 28.8 mph 0.02 in Rain Light Rain
2:53 PM 38.7 °F 29.8 °F 36.7 °F 93% 29.31 in 5.0 mi East 16.1 mph 34.5 mph 0.03 in Rain Light Rain
3:13 PM 39.2 °F 29.0 °F 37.2 °F 93% 29.23 in 7.0 mi East 21.9 mph 43.7 mph N/A   Overcast
3:33 PM 40.1 °F 32.4 °F 37.8 °F 91% 29.30 in 10.0 mi SE 13.8 mph 31.1 mph N/A   Overcast
3:53 PM 40.5 °F 31.5 °F 38.3 °F 92% 29.29 in 10.0 mi ESE 18.4 mph 26.5 mph N/A   Overcast
4:13 PM 41.0 °F 31.9 °F 38.5 °F 91% 29.29 in 10.0 mi SE 19.6 mph 27.6 mph N/A   Overcast
4:33 PM 41.0 °F 33.1 °F 38.7 °F 91% 29.28 in 10.0 mi SE 15.0 mph 29.9 mph N/A   Overcast
4:53 PM 41.5 °F 32.4 °F 39.4 °F 92% 29.28 in 5.0 mi SE 20.7 mph 28.8 mph 0.02 in Rain Rain
5:13 PM 41.7 °F 33.7 °F 39.4 °F 91% 29.25 in 7.0 mi ESE 16.1 mph 23.0 mph 0.02 in Rain Light Rain
5:33 PM 41.7 °F 34.1 °F 39.6 °F 92% 29.23 in 7.0 mi ESE 15.0 mph 27.6 mph 0.04 in Rain Rain
5:53 PM 41.9 °F 34.6 °F 39.7 °F 92% 29.22 in 7.0 mi ESE 13.8 mph 21.9 mph 0.07 in Rain Light Rain
6:13 PM 42.1 °F 35.2 °F 40.1 °F 93% 29.21 in 7.0 mi ESE 12.7 mph 24.2 mph 0.04 in Rain Rain
6:33 PM 42.4 °F 35.3 °F 40.5 °F 93% 29.20 in 5.0 mi ESE 13.8 mph 20.7 mph 0.08 in Rain Light Rain
6:53 PM 42.8 °F 37.0 °F 40.6 °F 92% 29.18 in 7.0 mi SE 10.4 mph 24.2 mph 0.08 in Rain Light Rain
7:12 PM 43.2 °F 35.9 °F 41.2 °F 93% 29.17 in 10.0 mi SE 15.0 mph 25.3 mph N/A Rain Light Rain
7:33 PM 43.0 °F 36.8 °F 41.2 °F 93% 29.16 in 7.0 mi ESE 11.5 mph 23.0 mph 0.01 in Rain Rain
7:53 PM 43.0 °F 37.2 °F 41.4 °F 94% 29.15 in 5.0 mi SE 10.4 mph 16.1 mph 0.01 in Rain Rain
8:13 PM 43.3 °F 39.2 °F 41.9 °F 95% 29.15 in 7.0 mi SSE 6.9 mph - 0.01 in Rain Light Rain
8:33 PM 44.6 °F 38.4 °F 41.7 °F 90% 29.15 in 10.0 mi South 12.7 mph - 0.01 in Rain Light Rain
8:52 PM 44.6 °F 38.4 °F 41.2 °F 88% 29.15 in 10.0 mi SW 12.7 mph 20.7 mph 0.01 in Rain Rain
9:13 PM 43.9 °F 38.8 °F 40.3 °F 87% 29.15 in 10.0 mi SW 9.2 mph 16.1 mph N/A   Overcast
9:33 PM 43.3 °F 38.1 °F 40.1 °F 88% 29.17 in 10.0 mi SW 9.2 mph - N/A Rain Light Rain
9:52 PM 42.8 °F 37.0 °F 39.7 °F 89% 29.17 in 10.0 mi SSW 10.4 mph 16.1 mph N/A   Drizzle
10:13 PM 42.1 °F 37.1 °F 38.7 °F 88% 29.17 in 10.0 mi SW 8.1 mph - N/A Rain Light Rain
10:33 PM 41.9 °F 34.3 °F 38.3 °F 87% 29.17 in 10.0 mi SSW 15.0 mph - N/A Rain Light Rain
10:52 PM 40.5 °F 31.5 °F 36.3 °F 85% 29.18 in 7.0 mi SW 18.4 mph 28.8 mph N/A   Heavy Drizzle
11:13 PM 37.9 °F 30.9 °F 34.5 °F 87% 29.19 in 10.0 mi SSW 10.4 mph 17.3 mph N/A Rain Light Rain
11:33 PM 37.4 °F 32.8 °F 34.5 °F 89% 29.18 in 10.0 mi South 5.8 mph - N/A   Overcast
11:52 PM 37.4 °F 31.4 °F 34.3 °F 89% 29.17 in 10.0 mi South 8.1 mph - N/A   Drizzle